Regional Weather Roundup
Issued by NWS

Home | Current Version | Previous Version | Graphics & Text | Print | Product List | Glossary On
Versions: 1 2 3 4 5 6 7 8 9 10 11 12 13 14 15 16 17 18 19 20 21 22 23 24 25 26 27 28 29 30 31 32 33 34 35 36 37 38 39 40 41 42 43 44 45 46 47 48 49 50
000
ASUS43 KTOP 112008
RWRKS

WEATHER ROUNDUP FOR KANSAS
NATIONAL WEATHER SERVICE GOODLAND KS
300 PM CDT FRI JUL 11 2014

NOTE:  "FAIR" INDICATES FEW OR NO CLOUDS BELOW 12,000 FEET WITH NO
SIGNIFICANT WEATHER AND/OR OBSTRUCTIONS TO VISIBILITY.

KSZ001>006-013>018-027>032-041>047-112100-
NORTHWEST KANSAS

CITY           SKY/WX    TMP DP  RH WIND       PRES   REMARKS
GOODLAND       SUNNY     96  54  24 S8        29.99F
HAYS           SUNNY    N/A N/A N/A S20       29.97F
HILL CITY      SUNNY    100  58  24 S12G24    29.95S HX  99
RUSSELL        MOSUNNY   95  64  35 S22G28    29.97F HX  97
$$

KSZ061>065-074>080-084>089-112100-
SOUTHWEST KANSAS

CITY           SKY/WX    TMP DP  RH WIND       PRES   REMARKS
DODGE CITY     SUNNY     93  57  29 S23G30    30.03F
ELKHART          N/A     94  52  24 S17         N/A
GARDEN CITY    SUNNY     94  52  24 S26G35    30.02F
GREAT BEND     MOSUNNY   95  63  34 S22G28    29.99S HX  96
LIBERAL        SUNNY     97  54  23 SW22G28   30.05F
PRATT          SUNNY     91  61  35 S17G23    30.04F
$$

KSZ066>073-081>083-090>101-112100-
SOUTHEAST KANSAS

CITY           SKY/WX    TMP DP  RH WIND       PRES   REMARKS
CHANUTE        SUNNY     91  71  51 S15G22    30.06S HX  97
COFFEYVILLE    SUNNY     91  71  51 SW10G21   30.06S HX  97
HUTCHINSON     MOSUNNY   95  67  39 S18       30.01F HX  99
MEDICINE LODGE   N/A     95  65  37 S12G21    30.01F HX  97
NEWTON         MOSUNNY   91  66  43 S20       30.07S
PARSONS        SUNNY     91  72  53 S8        30.07F HX  98
WICHITA INTL   MOSUNNY   92  67  43 S16       30.02F HX  95
WICHITA JABRA  SUNNY     92  71  50 S17G23    30.03F HX  98
WICHITA MCCONL SUNNY     91  69  47 S15       30.04F HX  96
WINFIELD       SUNNY     92  70  48 S16G22    30.05F HX  97
$$

KSZ007>012-019>026-033>040-048>060-102>105-112100-
NORTHEAST KANSAS

CITY           SKY/WX    TMP DP  RH WIND       PRES   REMARKS
CONCORDIA      SUNNY     93  67  42 S21       29.97F HX  96
EMPORIA        PTSUNNY   91  68  46 SW14      30.03F HX  95
LAWRENCE       PTSUNNY   90  72  55 S12       30.03S HX  97
MANHATTAN      MOSUNNY   96  68  39 S13       29.97F HX 101
MARYSVILLE     PTSUNNY   90  72  55 S14       29.98F HX  96
OLATHE IND     PTSUNNY   88  72  58 S17       30.05F
OLATHE EXE     PTSUNNY   85  73  67 S12       30.04F
SALINA         MOSUNNY   97  65  34 S17G24    29.98F HX  99
TOPEKA BILLARD MOSUNNY   88  73  61 S10       30.01F HX  95
TOPEKA FORBES  MOSUNNY   92  71  50 S14G22    30.02S HX  98
$$


USA.gov is the U.S. government's official web portal to all federal, state and local government web resources and services.